Weather History for KMBS - August, 2012

Change the Weather History Date:

Saturday, August 18, 2012

  Actual Average Record
Temperature  
Mean Temperature 60 °F 69 °F  
Max Temperature 73 °F 79 °F 87 °F (1996)
Min Temperature 48 °F 58 °F 43 °F (2007)
Degree Days  
Heating Degree Days 4    
Month to date heating degree days  
Since 1 June heating degree days  
Since 1 July heating degree days  
Cooling Degree Days 0    
Month to date cooling degree days  
Year to date cooling degree days  
Since 1 June cooling degree days  
Growing Degree Days 10 (Base 50)    
Moisture  
Dew Point 49 °F    
Average Humidity 65    
Maximum Humidity 93    
Minimum Humidity 41    
Precipitation  
Precipitation 0.00 in 0.11 in 0.07 in (2001)
Month to date precipitation 1.87  
Year to date precipitation 19.08  
Snow  
Snow 0.00 in - - ()
Month to date snowfall  
Since 1 June snowfall  
Since 1 July snowfall  
Snow Depth -    
Sea Level Pressure  
Sea Level Pressure 30.00 in    
Wind  
Wind Speed 5 mph (WSW)    
Max Wind Speed 10 mph    
Max Gust Speed -    
Visibility 10 miles    
Events      
T = Trace of Precipitation, MM = Missing Value Source: NWS Daily Summary

Daily Weather History Graph

Daily Weather History Graph

Search for Another Location

Airport or City:

Trip Planner

Search our weather history database for the weather conditions in past years. The results will help you decide how hot, cold, wet, or windy it might be!

Date:

Astronomy

Aug. 18, 2012 Rise Set
Actual Time 6:45 AM EDT 8:34 PM EDT
Civil Twilight 6:14 AM EDT 9:04 PM EDT
Nautical Twilight 5:36 AM EDT 9:42 PM EDT
Astronomical Twilight 4:56 AM EDT 10:22 PM EDT
Moon 7:56 AM EDT (8/18) 8:44 PM EDT (8/18)
Length of Visible Light 14h 50m
Length of Day
13h 49m
New Moon, 1% of the Moon is Illuminated
Aug 18
New Moon
Aug 24
First Quarter
Aug 31
Full
Sep 8
Last Quarter
Sep 15
New

Hourly Weather History & Observations

Time (EDT) Temp. Dew Point Humidity Pressure Visibility Wind Dir Wind Speed Gust Speed Precip Events Conditions
12:53 AM 55.0 °F 48.0 °F 77% 30.01 in 10.0 mi NW 3.5 mph - N/A   Clear
1:53 AM 55.0 °F 48.0 °F 77% 30.01 in 10.0 mi NW 6.9 mph - N/A   Clear
2:53 AM 53.1 °F 46.9 °F 80% 30.01 in 10.0 mi NNW 5.8 mph - N/A   Clear
3:53 AM 51.1 °F 46.0 °F 83% 30.01 in 10.0 mi West 3.5 mph - N/A   Clear
4:53 AM 50.0 °F 46.9 °F 89% 30.02 in 10.0 mi West 3.5 mph - N/A   Clear
5:53 AM 48.2 °F 46.4 °F 93% 30.03 in 10.0 mi WSW 5.8 mph - N/A   Clear
6:53 AM 48.9 °F 46.0 °F 90% 30.04 in 10.0 mi WSW 4.6 mph - N/A   Clear
7:53 AM 52.0 °F 48.9 °F 89% 30.04 in 10.0 mi West 3.5 mph - N/A   Clear
8:53 AM 57.9 °F 48.9 °F 72% 30.04 in 10.0 mi West 3.5 mph - N/A   Clear
9:53 AM 63.0 °F 46.9 °F 56% 30.04 in 10.0 mi SW 5.8 mph - N/A   Clear
10:53 AM 66.2 °F 48.2 °F 52% 30.05 in 10.0 mi SW 6.9 mph - N/A   Clear
11:53 AM 69.1 °F 48.0 °F 47% 30.04 in 10.0 mi Calm Calm - N/A   Clear
12:53 PM 70.0 °F 50.0 °F 49% 30.02 in 10.0 mi SSW 4.6 mph - N/A   Clear
1:53 PM 71.1 °F 48.9 °F 45% 30.01 in 10.0 mi South 10.4 mph - N/A   Clear
2:53 PM 72.0 °F 50.0 °F 46% 30.01 in 10.0 mi SSW 6.9 mph - N/A   Partly Cloudy
3:53 PM 73.0 °F 50.0 °F 44% 29.98 in 10.0 mi WSW 9.2 mph - N/A   Clear
4:53 PM 73.0 °F 48.0 °F 41% 29.96 in 10.0 mi WSW 8.1 mph - N/A   Clear
5:53 PM 73.0 °F 48.9 °F 42% 29.95 in 10.0 mi SW 8.1 mph - N/A   Clear
6:53 PM 72.0 °F 48.9 °F 44% 29.96 in 10.0 mi SW 9.2 mph - N/A   Clear
7:53 PM 68.0 °F 54.0 °F 61% 29.96 in 10.0 mi West 5.8 mph - N/A   Clear
8:53 PM 66.9 °F 54.0 °F 63% 29.96 in 10.0 mi West 3.5 mph - N/A   Clear
9:53 PM 63.0 °F 52.0 °F 67% 29.97 in 10.0 mi SW 4.6 mph - N/A   Clear
10:53 PM 63.0 °F 51.1 °F 65% 29.97 in 10.0 mi WSW 4.6 mph - N/A   Clear
11:53 PM 60.1 °F 53.1 °F 78% 29.97 in 10.0 mi SW 4.6 mph - N/A   Clear